User: anonymous   Login
Location: Brno
(49.2000°N, 16.6330°E)
Time: 14:38:10
(UTC+02:00)
Language:

BREEZE M DEB (TANK) - Orbit

View from above orbital plane
View from above orbital plane
View from above satellite
View from above satellite

Ground track
Ground track

The orbit data is extracted from the following two-line orbital elements,

1 28359U 04022B   17200.09908474 +.00001126 +00000-0 +17703-3 0  9997
2 28359 049.5571 014.9276 4661826 255.3463 050.1555 06.20138299287288
Epoch (UTC): 19 July 2017 02:22:40
Eccentricity: 0.4661826
inclination: 49.5571°
perigee height: 302 km
apogee height: 11970 km
right ascension of ascending node: 14.9276°
argument of perigee: 255.3463°
revolutions per day: 6.20138299
mean anomaly at epoch: 50.1555°
orbit number at epoch: 28728

The dashed part of the orbit path shows where the satellite is in the earth's shadow,  

DLR